BREEZE-M DEB, 38594

Orbit data source: Space-Track

BREEZE-M DEB, 38594 is space debris in HEO originally from a launch on Fri, 14 Mar 2008 UTC launched from the Tyuratam Missile And Space Complex (TTMTR). Debris objects in space refer to the collection of defunct objects orbiting the Earth. Examples of debris include non-operational satellites, rocket bodies, and fragments generated from explosions, collisions, or faulty payload assembly.

Loading next visibility...
Identifier
38594, 2008-011AR
Orbit
HEO
Country
Flag of CISCIS
Related business
Manufacturer
Unknown
Mission
Spacecraft
Bus & Motor
Unknown
Mass
Unknown
Launch date (UTC)
2008-03-14 (18 years ago)
Launch vehicle
Unknown
Launch site
Tyuratam Missile And Space Complex (TTMTR)
Object type
Payload
Rocket body
Debris
Shape & HBR
Unknown shape, 0.3 m
Radar Cross Section
Medium (>0.1 m² and <1 m²)

Expand to show TLE details & history
Last TLE update: 3 weeks ago

TLE from 3 weeks ago
0 BREEZE-M DEB
1 38594U 08011AR  26149.16678584  .00001800  00000-0  29187-1 0  9993
2 38594  49.2227  58.4241 6543098 174.2563 357.3115  2.97158676165776
Epoch: 2026-05-29T04:00Z
TLE epoch observation values (Epoch: 2026-05-29T04:00:10.296Z)
Latitude
17.19082°
Longitude
-83.68352°
Altitude
800.928 km
Speed
9.57 km/s
True Right ascension
14h 52m 14s
True Declination
17° 05' 40"
Sunlit
Object was in full shadow at epoch
Visualization orbit readout
Latitude
Unknown
Longitude
Unknown
Altitude
Unknown
Speed
Unknown
Apparent Right ascension
Unknown
Apparent Declination
Unknown
Sunlit
N/A
Visualization observer readout
Local Sidereal Time
01:45:37
Azimuth
Unknown
Elevation
Unknown
Doppler factor
Unknown
Orbital elements
Apogee altitude
27,431.576 km
Perigee altitude
686.856 km
Semi-major axis
20,437.353 km
Eccentricity
0.65431
Inclination
49.2227°
RAAN
58.4241°
Arg. of periapsis
174.2563°
True anomaly
343.17996°
Mean anomaly
357.3115°
Eccentric anomaly
352.2672°
Mean motion
0.74286 °/min
Orbital period
484.61 mins
BSTAR
0.029187
Loading maneuver chart data...
Computing Atmospheric mass density...
Loading historical data...
Loading historical data...
Loading historical data...
Loading historical data...
Loading historical data...
Loading historical data...
Loading historical data...

Documentation

Showing up to 5 results
|